0610300051,2004,01,01,00,2.55
0610300051,2004,01,01,01,2.32
0610300051,2004,01,01,02,2.01
0610300051,2004,01,01,03,1.8
0610300051,2004,01,01,04,1.77
0610300051,2004,01,01,05,2.09
0610300051,2004,01,01,06,2.44
0610300051,2004,01,01,07,2.43
0610300051,2004,01,01,08,2.29
0610300051,2004,01,01,09,2.08
0610300051,2004,01,01,10,2.18
0610300051,2004,01,01,11,2.84
0610300051,2004,01,01,12,2.96
0610300051,2004,01,01,13,2.96
0610300051,2004,01,01,14,2.16
0610300051,2004,01,01,15,3.99
0610300051,2004,01,01,16,2.08
0610300051,2004,01,01,17,1.64
0610300051,2004,01,01,18,1.42
0610300051,2004,01,01,19,1.6
0610300051,2004,01,01,20,1.88
0610300051,2004,01,01,21,2.12
0610300051,2004,01,01,22,2.03
0610300051,2004,01,01,23,1.89
0610300051,2004,01,02,00,0.99
0610300051,2004,01,02,01,1.29
0610300051,2004,01,02,02,0.78
0610300051,2004,01,02,03,1.18
0610300051,2004,01,02,04,1.27
0610300051,2004,01,02,05,1.33
0610300051,2004,01,02,06,1.34
0610300051,2004,01,02,07,0.95
0610300051,2004,01,02,08,1.24
0610300051,2004,01,02,09,1.95
0610300051,2004,01,02,10,1.47
0610300051,2004,01,02,11,1.25
0610300051,2004,01,02,12,1.26
0610300051,2004,01,02,13,1.58
0610300051,2004,01,02,14,1.01
0610300051,2004,01,02,15,3.92
0610300051,2004,01,02,16,0.5
0610300051,2004,01,02,17,1.06
0610300051,2004,01,02,18,0.53
0610300051,2004,01,02,19,1
0610300051,2004,01,02,20,0.81
0610300051,2004,01,02,21,0.35
0610300051,2004,01,02,22,0.08
0610300051,2004,01,02,23,0.06
0610300051,2004,01,03,00,99
0610300051,2004,01,03,01,99
0610300051,2004,01,03,02,99
0610300051,2004,01,03,03,99
0610300051,2004,01,03,04,99
0610300051,2004,01,03,05,99
0610300051,2004,01,03,06,99
0610300051,2004,01,03,07,99
0610300051,2004,01,03,08,0.37
0610300051,2004,01,03,09,0.73
0610300051,2004,01,03,10,1.28
0610300051,2004,01,03,11,1.92
0610300051,2004,01,03,12,2.3
0610300051,2004,01,03,13,2.42
0610300051,2004,01,03,14,2.23
0610300051,2004,01,03,15,1.75
0610300051,2004,01,03,16,3.08
0610300051,2004,01,03,17,0.27
0610300051,2004,01,03,18,99
0610300051,2004,01,03,19,99
0610300051,2004,01,03,20,99
0610300051,2004,01,03,21,99
0610300051,2004,01,03,22,99
0610300051,2004,01,03,23,99
0610300051,2004,01,04,00,99
0610300051,2004,01,04,01,99
0610300051,2004,01,04,02,99
0610300051,2004,01,04,03,99
0610300051,2004,01,04,04,99
0610300051,2004,01,04,05,99
0610300051,2004,01,04,06,99
0610300051,2004,01,04,07,99
0610300051,2004,01,04,08,0.31
0610300051,2004,01,04,09,1.09
0610300051,2004,01,04,10,1.49
0610300051,2004,01,04,11,1.65
0610300051,2004,01,04,12,2.02
0610300051,2004,01,04,13,2.41
0610300051,2004,01,04,14,2.23
0610300051,2004,01,04,15,1.51
0610300051,2004,01,04,16,3.87
0610300051,2004,01,04,17,99
0610300051,2004,01,04,18,99
0610300051,2004,01,04,19,99
0610300051,2004,01,04,20,99
0610300051,2004,01,04,21,99
0610300051,2004,01,04,22,99
0610300051,2004,01,04,23,0.08
0610300051,2004,01,05,00,0.32
0610300051,2004,01,05,01,0.21
0610300051,2004,01,05,02,0.03
0610300051,2004,01,05,03,99
0610300051,2004,01,05,04,99
0610300051,2004,01,05,05,99
0610300051,2004,01,05,06,0.22
0610300051,2004,01,05,07,99
0610300051,2004,01,05,08,0.07
0610300051,2004,01,05,09,1.29
0610300051,2004,01,05,10,1.81
0610300051,2004,01,05,11,1.95
0610300051,2004,01,05,12,2.19
0610300051,2004,01,05,13,2.15
0610300051,2004,01,05,14,1.9
0610300051,2004,01,05,15,0.37
0610300051,2004,01,05,16,1.19
0610300051,2004,01,05,17,2.2
0610300051,2004,01,05,18,99
0610300051,2004,01,05,19,99
0610300051,2004,01,05,20,99
0610300051,2004,01,05,21,0.38
0610300051,2004,01,05,22,0.98
0610300051,2004,01,05,23,0.04
0610300051,2004,01,06,00,0.1
0610300051,2004,01,06,01,99
0610300051,2004,01,06,02,0.05
0610300051,2004,01,06,03,0.57
0610300051,2004,01,06,04,0.79
0610300051,2004,01,06,05,99
0610300051,2004,01,06,06,99
0610300051,2004,01,06,07,99
0610300051,2004,01,06,08,99
0610300051,2004,01,06,09,0.31
0610300051,2004,01,06,10,0.7
0610300051,2004,01,06,11,0.43
0610300051,2004,01,06,12,1.06
0610300051,2004,01,06,13,0.76
0610300051,2004,01,06,14,0.59
0610300051,2004,01,06,15,99
0610300051,2004,01,06,16,99
0610300051,2004,01,06,17,3.81
0610300051,2004,01,06,18,99
0610300051,2004,01,06,19,99
0610300051,2004,01,06,20,99
0610300051,2004,01,06,21,0.02
0610300051,2004,01,06,22,99
0610300051,2004,01,06,23,0.19
0610300051,2004,01,07,00,1.25
0610300051,2004,01,07,01,1.49
0610300051,2004,01,07,02,1.66
0610300051,2004,01,07,03,1.52
0610300051,2004,01,07,04,0.46
0610300051,2004,01,07,05,0.26
0610300051,2004,01,07,06,99
0610300051,2004,01,07,07,0.1
0610300051,2004,01,07,08,0.22
0610300051,2004,01,07,09,0.14
0610300051,2004,01,07,10,99
0610300051,2004,01,07,11,99
0610300051,2004,01,07,12,99
0610300051,2004,01,07,13,0.04
0610300051,2004,01,07,14,99
0610300051,2004,01,07,15,99
0610300051,2004,01,07,16,99
0610300051,2004,01,07,17,1.33
0610300051,2004,01,07,18,2.18
0610300051,2004,01,07,19,99
0610300051,2004,01,07,20,99
0610300051,2004,01,07,21,99
0610300051,2004,01,07,22,99
0610300051,2004,01,07,23,99
0610300051,2004,01,08,00,99
0610300051,2004,01,08,01,99
0610300051,2004,01,08,02,99
0610300051,2004,01,08,03,99
0610300051,2004,01,08,04,99
0610300051,2004,01,08,05,99
0610300051,2004,01,08,06,99
0610300051,2004,01,08,07,99
0610300051,2004,01,08,08,99
0610300051,2004,01,08,09,0.14
0610300051,2004,01,08,10,0.42
0610300051,2004,01,08,11,1.05
0610300051,2004,01,08,12,1.19
0610300051,2004,01,08,13,0.81
0610300051,2004,01,08,14,0.72
0610300051,2004,01,08,15,0.81
0610300051,2004,01,08,16,1.41
0610300051,2004,01,08,17,1.12
0610300051,2004,01,08,18,3.94
0610300051,2004,01,08,19,99
0610300051,2004,01,08,20,0.27
0610300051,2004,01,08,21,0.93
0610300051,2004,01,08,22,99
0610300051,2004,01,08,23,0.08
0610300051,2004,01,09,00,0.37
0610300051,2004,01,09,01,0.22
0610300051,2004,01,09,02,0.07
0610300051,2004,01,09,03,0.05
0610300051,2004,01,09,04,99
0610300051,2004,01,09,05,99
0610300051,2004,01,09,06,99
0610300051,2004,01,09,07,99
0610300051,2004,01,09,08,99
0610300051,2004,01,09,09,99
0610300051,2004,01,09,10,99
0610300051,2004,01,09,11,99
0610300051,2004,01,09,12,99
0610300051,2004,01,09,13,99
0610300051,2004,01,09,14,99
0610300051,2004,01,09,15,0.56
0610300051,2004,01,09,16,0.65
0610300051,2004,01,09,17,0.55
0610300051,2004,01,09,18,1.39
0610300051,2004,01,09,19,2.41
0610300051,2004,01,09,20,99
0610300051,2004,01,09,21,0.05
0610300051,2004,01,09,22,0.27
0610300051,2004,01,09,23,0.17
0610300051,2004,01,10,00,0.34
0610300051,2004,01,10,01,0.7
0610300051,2004,01,10,02,0.75
0610300051,2004,01,10,03,1.01
0610300051,2004,01,10,04,0.44
0610300051,2004,01,10,05,0.04
0610300051,2004,01,10,06,0.08
0610300051,2004,01,10,07,0.03
0610300051,2004,01,10,08,0.43
0610300051,2004,01,10,09,0.24
0610300051,2004,01,10,10,0.56
0610300051,2004,01,10,11,1.03
0610300051,2004,01,10,12,1.76
0610300051,2004,01,10,13,1.67
0610300051,2004,01,10,14,1.23
0610300051,2004,01,10,15,0.12
0610300051,2004,01,10,16,99
0610300051,2004,01,10,17,99
0610300051,2004,01,10,18,0.2
0610300051,2004,01,10,19,3.75
0610300051,2004,01,10,20,99
0610300051,2004,01,10,21,99
0610300051,2004,01,10,22,99
0610300051,2004,01,10,23,99
0610300051,2004,01,11,00,99
0610300051,2004,01,11,01,99
0610300051,2004,01,11,02,99
0610300051,2004,01,11,03,99
0610300051,2004,01,11,04,99
0610300051,2004,01,11,05,99
0610300051,2004,01,11,06,99
0610300051,2004,01,11,07,99
0610300051,2004,01,11,08,99
0610300051,2004,01,11,09,0.24
0610300051,2004,01,11,10,0.97
0610300051,2004,01,11,11,0.95
0610300051,2004,01,11,12,0.89
0610300051,2004,01,11,13,0.97
0610300051,2004,01,11,14,1.73
0610300051,2004,01,11,15,0.64
0610300051,2004,01,11,16,99
0610300051,2004,01,11,17,99
0610300051,2004,01,11,18,99
0610300051,2004,01,11,19,1.18
0610300051,2004,01,11,20,1.71
0610300051,2004,01,11,21,99
0610300051,2004,01,11,22,99
0610300051,2004,01,11,23,99
0610300051,2004,01,12,00,99
0610300051,2004,01,12,01,99
0610300051,2004,01,12,02,99
0610300051,2004,01,12,03,99
0610300051,2004,01,12,04,99
0610300051,2004,01,12,05,99
0610300051,2004,01,12,06,99
0610300051,2004,01,12,07,99
0610300051,2004,01,12,08,99
0610300051,2004,01,12,09,99
0610300051,2004,01,12,10,99
0610300051,2004,01,12,11,99
0610300051,2004,01,12,12,99
0610300051,2004,01,12,13,99
0610300051,2004,01,12,14,99
0610300051,2004,01,12,15,99
0610300051,2004,01,12,16,99
0610300051,2004,01,12,17,99
0610300051,2004,01,12,18,99
0610300051,2004,01,12,19,99
0610300051,2004,01,12,20,3.64
0610300051,2004,01,12,21,99
0610300051,2004,01,12,22,99
0610300051,2004,01,12,23,99
0610300051,2004,01,13,00,99
0610300051,2004,01,13,01,99
0610300051,2004,01,13,02,99
0610300051,2004,01,13,03,99
0610300051,2004,01,13,04,99
0610300051,2004,01,13,05,99
0610300051,2004,01,13,06,99
0610300051,2004,01,13,07,99
0610300051,2004,01,13,08,99
0610300051,2004,01,13,09,99
0610300051,2004,01,13,10,99
0610300051,2004,01,13,11,99
0610300051,2004,01,13,12,99
0610300051,2004,01,13,13,99
0610300051,2004,01,13,14,0.18
0610300051,2004,01,13,15,99
0610300051,2004,01,13,16,99
0610300051,2004,01,13,17,99
0610300051,2004,01,13,18,99
0610300051,2004,01,13,19,99
0610300051,2004,01,13,20,1.34
0610300051,2004,01,13,21,1.85
0610300051,2004,01,13,22,99
0610300051,2004,01,13,23,99
0610300051,2004,01,14,00,99
0610300051,2004,01,14,01,0.34
0610300051,2004,01,14,02,99
0610300051,2004,01,14,03,99
0610300051,2004,01,14,04,99
0610300051,2004,01,14,05,99
0610300051,2004,01,14,06,99
0610300051,2004,01,14,07,99
0610300051,2004,01,14,08,99
0610300051,2004,01,14,09,99
0610300051,2004,01,14,10,99
0610300051,2004,01,14,11,99
0610300051,2004,01,14,12,99
0610300051,2004,01,14,13,99
0610300051,2004,01,14,14,99
0610300051,2004,01,14,15,99
0610300051,2004,01,14,16,99
0610300051,2004,01,14,17,99
0610300051,2004,01,14,18,99
0610300051,2004,01,14,19,99
0610300051,2004,01,14,20,99
0610300051,2004,01,14,21,3.6
0610300051,2004,01,14,22,99
0610300051,2004,01,14,23,99
0610300051,2004,01,15,00,99
0610300051,2004,01,15,01,99
0610300051,2004,01,15,02,99
0610300051,2004,01,15,03,99
0610300051,2004,01,15,04,99
0610300051,2004,01,15,05,99
0610300051,2004,01,15,06,99
0610300051,2004,01,15,07,99
0610300051,2004,01,15,08,99
0610300051,2004,01,15,09,99
0610300051,2004,01,15,10,0.39
0610300051,2004,01,15,11,0.98
0610300051,2004,01,15,12,2.15
0610300051,2004,01,15,13,2.31
0610300051,2004,01,15,14,1.67
0610300051,2004,01,15,15,99
0610300051,2004,01,15,16,99
0610300051,2004,01,15,17,99
0610300051,2004,01,15,18,99
0610300051,2004,01,15,19,0
0610300051,2004,01,15,20,0.06
0610300051,2004,01,15,21,1.34
0610300051,2004,01,15,22,2.19
0610300051,2004,01,15,23,99
0610300051,2004,01,16,00,0.12
0610300051,2004,01,16,01,99
0610300051,2004,01,16,02,99
0610300051,2004,01,16,03,99
0610300051,2004,01,16,04,99
0610300051,2004,01,16,05,99
0610300051,2004,01,16,06,99
0610300051,2004,01,16,07,99
0610300051,2004,01,16,08,99
0610300051,2004,01,16,09,0.33
0610300051,2004,01,16,10,0.69
0610300051,2004,01,16,11,0.59
0610300051,2004,01,16,12,0.67
0610300051,2004,01,16,13,0.83
0610300051,2004,01,16,14,0.51
0610300051,2004,01,16,15,0.11
0610300051,2004,01,16,16,99
0610300051,2004,01,16,17,99
0610300051,2004,01,16,18,99
0610300051,2004,01,16,19,99
0610300051,2004,01,16,20,99
0610300051,2004,01,16,21,99
0610300051,2004,01,16,22,3.73
0610300051,2004,01,16,23,99
0610300051,2004,01,17,00,99
0610300051,2004,01,17,01,99
0610300051,2004,01,17,02,99
0610300051,2004,01,17,03,99
0610300051,2004,01,17,04,99
0610300051,2004,01,17,05,99
0610300051,2004,01,17,06,99
0610300051,2004,01,17,07,99
0610300051,2004,01,17,08,99
0610300051,2004,01,17,09,99
0610300051,2004,01,17,10,0.3
0610300051,2004,01,17,11,0.62
0610300051,2004,01,17,12,0.81
0610300051,2004,01,17,13,1.1
0610300051,2004,01,17,14,0.99
0610300051,2004,01,17,15,0.76
0610300051,2004,01,17,16,0.67
0610300051,2004,01,17,17,0.63
0610300051,2004,01,17,18,99
0610300051,2004,01,17,19,99
0610300051,2004,01,17,20,99
0610300051,2004,01,17,21,99
0610300051,2004,01,17,22,1.31
0610300051,2004,01,17,23,1.88
0610300051,2004,01,18,00,99
0610300051,2004,01,18,01,99
0610300051,2004,01,18,02,99
0610300051,2004,01,18,03,99
0610300051,2004,01,18,04,99
0610300051,2004,01,18,05,99
0610300051,2004,01,18,06,99
0610300051,2004,01,18,07,99
0610300051,2004,01,18,08,0.09
0610300051,2004,01,18,09,0.39
0610300051,2004,01,18,10,0.51
0610300051,2004,01,18,11,0.86
0610300051,2004,01,18,12,1.22
0610300051,2004,01,18,13,1.53
0610300051,2004,01,18,14,1.55
0610300051,2004,01,18,15,1.25
0610300051,2004,01,18,16,99
0610300051,2004,01,18,17,99
0610300051,2004,01,18,18,99
0610300051,2004,01,18,19,99
0610300051,2004,01,18,20,99
0610300051,2004,01,18,21,99
0610300051,2004,01,18,22,99
0610300051,2004,01,18,23,3.48
0610300051,2004,01,19,00,99
0610300051,2004,01,19,01,99
0610300051,2004,01,19,02,99
0610300051,2004,01,19,03,99
0610300051,2004,01,19,04,99
0610300051,2004,01,19,05,99
0610300051,2004,01,19,06,99
0610300051,2004,01,19,07,99
0610300051,2004,01,19,08,99
0610300051,2004,01,19,09,99
0610300051,2004,01,19,10,0.2
0610300051,2004,01,19,11,0.46
0610300051,2004,01,19,12,0.62
0610300051,2004,01,19,13,0.67
0610300051,2004,01,19,14,0.62
0610300051,2004,01,19,15,0.74
0610300051,2004,01,19,16,0.77
0610300051,2004,01,19,17,0.23
0610300051,2004,01,19,18,0.03
0610300051,2004,01,19,19,99
0610300051,2004,01,19,20,99
0610300051,2004,01,19,21,0.15
0610300051,2004,01,19,22,0.11
0610300051,2004,01,19,23,1.16
0610300051,2004,01,20,00,2.53
0610300051,2004,01,20,01,0.35
0610300051,2004,01,20,02,0.32
0610300051,2004,01,20,03,0.01
0610300051,2004,01,20,04,99
0610300051,2004,01,20,05,99
0610300051,2004,01,20,06,99
0610300051,2004,01,20,07,99
0610300051,2004,01,20,08,0.88
0610300051,2004,01,20,09,0.79
0610300051,2004,01,20,10,0.74
0610300051,2004,01,20,11,1.94
0610300051,2004,01,20,12,2.17
0610300051,2004,01,20,13,2.1
0610300051,2004,01,20,14,1.85
0610300051,2004,01,20,15,1.58
0610300051,2004,01,20,16,1.6
0610300051,2004,01,20,17,1.86
0610300051,2004,01,20,18,1.74
0610300051,2004,01,20,19,1.94
0610300051,2004,01,20,20,2.16
0610300051,2004,01,20,21,2.22
0610300051,2004,01,20,22,2.2
0610300051,2004,01,20,23,1.1
0610300051,2004,01,21,00,3.86
0610300051,2004,01,21,01,1.47
0610300051,2004,01,21,02,1.07
0610300051,2004,01,21,03,99
0610300051,2004,01,21,04,0.51
0610300051,2004,01,21,05,99
0610300051,2004,01,21,06,99
0610300051,2004,01,21,07,0.18
0610300051,2004,01,21,08,0.52
0610300051,2004,01,21,09,1.53
0610300051,2004,01,21,10,1.6
0610300051,2004,01,21,11,2.16
0610300051,2004,01,21,12,2.19
0610300051,2004,01,21,13,2.32
0610300051,2004,01,21,14,1.98
0610300051,2004,01,21,15,1.21
0610300051,2004,01,21,16,0.08
0610300051,2004,01,21,17,99
0610300051,2004,01,21,18,0.17
0610300051,2004,01,21,19,99
0610300051,2004,01,21,20,99
0610300051,2004,01,21,21,99
0610300051,2004,01,21,22,99
0610300051,2004,01,21,23,99
0610300051,2004,01,22,00,0.95
0610300051,2004,01,22,01,1.98
0610300051,2004,01,22,02,99
0610300051,2004,01,22,03,99
0610300051,2004,01,22,04,99
0610300051,2004,01,22,05,99
0610300051,2004,01,22,06,99
0610300051,2004,01,22,07,99
0610300051,2004,01,22,08,99
0610300051,2004,01,22,09,0.1
0610300051,2004,01,22,10,0.9
0610300051,2004,01,22,11,1.19
0610300051,2004,01,22,12,1.49
0610300051,2004,01,22,13,1.64
0610300051,2004,01,22,14,1.85
0610300051,2004,01,22,15,1.52
0610300051,2004,01,22,16,99
0610300051,2004,01,22,17,99
0610300051,2004,01,22,18,99
0610300051,2004,01,22,19,99
0610300051,2004,01,22,20,99
0610300051,2004,01,22,21,99
0610300051,2004,01,22,22,99
0610300051,2004,01,22,23,99
0610300051,2004,01,23,00,99
0610300051,2004,01,23,01,3.85
0610300051,2004,01,23,02,99
0610300051,2004,01,23,03,99
0610300051,2004,01,23,04,99
0610300051,2004,01,23,05,99
0610300051,2004,01,23,06,99
0610300051,2004,01,23,07,0
0610300051,2004,01,23,08,0.3
0610300051,2004,01,23,09,0.38
0610300051,2004,01,23,10,1.03
0610300051,2004,01,23,11,1.28
0610300051,2004,01,23,12,1.81
0610300051,2004,01,23,13,1.82
0610300051,2004,01,23,14,1.48
0610300051,2004,01,23,15,1.37
0610300051,2004,01,23,16,0
0610300051,2004,01,23,17,99
0610300051,2004,01,23,18,0.19
0610300051,2004,01,23,19,0.6
0610300051,2004,01,23,20,0.61
0610300051,2004,01,23,21,0.27
0610300051,2004,01,23,22,0.9
0610300051,2004,01,23,23,1.08
0610300051,2004,01,24,00,0.11
0610300051,2004,01,24,01,1.76
0610300051,2004,01,24,02,2.01
0610300051,2004,01,24,03,99
0610300051,2004,01,24,04,0.1
0610300051,2004,01,24,05,99
0610300051,2004,01,24,06,99
0610300051,2004,01,24,07,99
0610300051,2004,01,24,08,0.51
0610300051,2004,01,24,09,0.97
0610300051,2004,01,24,10,1.7
0610300051,2004,01,24,11,1.76
0610300051,2004,01,24,12,1.45
0610300051,2004,01,24,13,1.73
0610300051,2004,01,24,14,1.9
0610300051,2004,01,24,15,1.74
0610300051,2004,01,24,16,1.01
0610300051,2004,01,24,17,1.09
0610300051,2004,01,24,18,0.51
0610300051,2004,01,24,19,0
0610300051,2004,01,24,20,99
0610300051,2004,01,24,21,99
0610300051,2004,01,24,22,99
0610300051,2004,01,24,23,1.59
0610300051,2004,01,25,00,1.24
0610300051,2004,01,25,01,0.76
0610300051,2004,01,25,02,4.05
0610300051,2004,01,25,03,1.55
0610300051,2004,01,25,04,0.28
0610300051,2004,01,25,05,0.01
0610300051,2004,01,25,06,0.33
0610300051,2004,01,25,07,0.71
0610300051,2004,01,25,08,0.9
0610300051,2004,01,25,09,1.72
0610300051,2004,01,25,10,2.43
0610300051,2004,01,25,11,2.89
0610300051,2004,01,25,12,2.93
0610300051,2004,01,25,13,2.94
0610300051,2004,01,25,14,2.81
0610300051,2004,01,25,15,1.86
0610300051,2004,01,25,16,0.84
0610300051,2004,01,25,17,99
0610300051,2004,01,25,18,0
0610300051,2004,01,25,19,99
0610300051,2004,01,25,20,0
0610300051,2004,01,25,21,0.06
0610300051,2004,01,25,22,0.3
0610300051,2004,01,25,23,99
0610300051,2004,01,26,00,99
0610300051,2004,01,26,01,99
0610300051,2004,01,26,02,1.22
0610300051,2004,01,26,03,1.67
0610300051,2004,01,26,04,99
0610300051,2004,01,26,05,99
0610300051,2004,01,26,06,99
0610300051,2004,01,26,07,99
0610300051,2004,01,26,08,99
0610300051,2004,01,26,09,99
0610300051,2004,01,26,10,0.02
0610300051,2004,01,26,11,0.07
0610300051,2004,01,26,12,0.37
0610300051,2004,01,26,13,0.33
0610300051,2004,01,26,14,0.24
0610300051,2004,01,26,15,0.31
0610300051,2004,01,26,16,99
0610300051,2004,01,26,17,0.59
0610300051,2004,01,26,18,0.77
0610300051,2004,01,26,19,0.47
0610300051,2004,01,26,20,99
0610300051,2004,01,26,21,99
0610300051,2004,01,26,22,99
0610300051,2004,01,26,23,0.43
0610300051,2004,01,27,00,0.22
0610300051,2004,01,27,01,0.03
0610300051,2004,01,27,02,0.35
0610300051,2004,01,27,03,3.78
0610300051,2004,01,27,04,0.11
0610300051,2004,01,27,05,0
0610300051,2004,01,27,06,99
0610300051,2004,01,27,07,99
0610300051,2004,01,27,08,99
0610300051,2004,01,27,09,99
0610300051,2004,01,27,10,99
0610300051,2004,01,27,11,99
0610300051,2004,01,27,12,0.16
0610300051,2004,01,27,13,99
0610300051,2004,01,27,14,0.1
0610300051,2004,01,27,15,99
0610300051,2004,01,27,16,99
0610300051,2004,01,27,17,99
0610300051,2004,01,27,18,99
0610300051,2004,01,27,19,99
0610300051,2004,01,27,20,99
0610300051,2004,01,27,21,99
0610300051,2004,01,27,22,99
0610300051,2004,01,27,23,99
0610300051,2004,01,28,00,99
0610300051,2004,01,28,01,99
0610300051,2004,01,28,02,99
0610300051,2004,01,28,03,1.24
0610300051,2004,01,28,04,1.24
0610300051,2004,01,28,05,99
0610300051,2004,01,28,06,99
0610300051,2004,01,28,07,99
0610300051,2004,01,28,08,99
0610300051,2004,01,28,09,99
0610300051,2004,01,28,10,99
0610300051,2004,01,28,11,99
0610300051,2004,01,28,12,99
0610300051,2004,01,28,13,99
0610300051,2004,01,28,14,0.04
0610300051,2004,01,28,15,99
0610300051,2004,01,28,16,99
0610300051,2004,01,28,17,99
0610300051,2004,01,28,18,99
0610300051,2004,01,28,19,99
0610300051,2004,01,28,20,99
0610300051,2004,01,28,21,99
0610300051,2004,01,28,22,99
0610300051,2004,01,28,23,99
0610300051,2004,01,29,00,99
0610300051,2004,01,29,01,99
0610300051,2004,01,29,02,99
0610300051,2004,01,29,03,99
0610300051,2004,01,29,04,3.59
0610300051,2004,01,29,05,99
0610300051,2004,01,29,06,99
0610300051,2004,01,29,07,99
0610300051,2004,01,29,08,99
0610300051,2004,01,29,09,99
0610300051,2004,01,29,10,0.29
0610300051,2004,01,29,11,0.56
0610300051,2004,01,29,12,0.58
0610300051,2004,01,29,13,0.71
0610300051,2004,01,29,14,1
0610300051,2004,01,29,15,0.87
0610300051,2004,01,29,16,99
0610300051,2004,01,29,17,99
0610300051,2004,01,29,18,99
0610300051,2004,01,29,19,99
0610300051,2004,01,29,20,99
0610300051,2004,01,29,21,0.12
0610300051,2004,01,29,22,0.11
0610300051,2004,01,29,23,99
0610300051,2004,01,30,00,0.19
0610300051,2004,01,30,01,0.77
0610300051,2004,01,30,02,0.79
0610300051,2004,01,30,03,0.67
0610300051,2004,01,30,04,1.63
0610300051,2004,01,30,05,2.3
0610300051,2004,01,30,06,99
0610300051,2004,01,30,07,99
0610300051,2004,01,30,08,1.38
0610300051,2004,01,30,09,0.28
0610300051,2004,01,30,10,0.7
0610300051,2004,01,30,11,1.21
0610300051,2004,01,30,12,1.27
0610300051,2004,01,30,13,1.57
0610300051,2004,01,30,14,1.17
0610300051,2004,01,30,15,0.76
0610300051,2004,01,30,16,0.74
0610300051,2004,01,30,17,2.43
0610300051,2004,01,30,18,2.35
0610300051,2004,01,30,19,2.56
0610300051,2004,01,30,20,2.03
0610300051,2004,01,30,21,0.99
0610300051,2004,01,30,22,1.18
0610300051,2004,01,30,23,1.3
0610300051,2004,01,31,00,0.76
0610300051,2004,01,31,01,0.79
0610300051,2004,01,31,02,1
0610300051,2004,01,31,03,1.56
0610300051,2004,01,31,04,1.09
0610300051,2004,01,31,05,4.71
0610300051,2004,01,31,06,1.66
0610300051,2004,01,31,07,1.94
0610300051,2004,01,31,08,2.26
0610300051,2004,01,31,09,3.23
0610300051,2004,01,31,10,3.93
0610300051,2004,01,31,11,4.05
0610300051,2004,01,31,12,4.41
0610300051,2004,01,31,13,4.3
0610300051,2004,01,31,14,4.03
0610300051,2004,01,31,15,3.08
0610300051,2004,01,31,16,1.63
0610300051,2004,01,31,17,0.75
0610300051,2004,01,31,18,0.89
0610300051,2004,01,31,19,1.43
0610300051,2004,01,31,20,0.71
0610300051,2004,01,31,21,0.74
0610300051,2004,01,31,22,0.63
0610300051,2004,01,31,23,0.69
0610300051,2004,02,01,00,0.56
0610300051,2004,02,01,01,0.74
0610300051,2004,02,01,02,0.65
0610300051,2004,02,01,03,0.56
0610300051,2004,02,01,04,0.57
0610300051,2004,02,01,05,2.28
0610300051,2004,02,01,06,1.93
0610300051,2004,02,01,07,99
0610300051,2004,02,01,08,99
0610300051,2004,02,01,09,0.51
0610300051,2004,02,01,10,0.88
0610300051,2004,02,01,11,1.16
0610300051,2004,02,01,12,1.97
0610300051,2004,02,01,13,2.28
0610300051,2004,02,01,14,2.09
0610300051,2004,02,01,15,2.16
0610300051,2004,02,01,16,2.13
0610300051,2004,02,01,17,1.86
0610300051,2004,02,01,18,1.55
0610300051,2004,02,01,19,1.48
0610300051,2004,02,01,20,1
0610300051,2004,02,01,21,0.63
0610300051,2004,02,01,22,0.94
0610300051,2004,02,01,23,1.01
0610300051,2004,02,02,00,0.82
0610300051,2004,02,02,01,1.01
0610300051,2004,02,02,02,0.78
0610300051,2004,02,02,03,0.68
0610300051,2004,02,02,04,0.86
0610300051,2004,02,02,05,0.37
0610300051,2004,02,02,06,4.02
0610300051,2004,02,02,07,0.66
0610300051,2004,02,02,08,1.02
0610300051,2004,02,02,09,1.38
0610300051,2004,02,02,10,1.37
0610300051,2004,02,02,11,0.72
0610300051,2004,02,02,12,0.42
0610300051,2004,02,02,13,0.23
0610300051,2004,02,02,14,99
0610300051,2004,02,02,15,0.38
0610300051,2004,02,02,16,99
0610300051,2004,02,02,17,99
0610300051,2004,02,02,18,99
0610300051,2004,02,02,19,99
0610300051,2004,02,02,20,99
0610300051,2004,02,02,21,99
0610300051,2004,02,02,22,99
0610300051,2004,02,02,23,99
0610300051,2004,02,03,00,0.92
0610300051,2004,02,03,01,0.66
0610300051,2004,02,03,02,0.72
0610300051,2004,02,03,03,1.28
0610300051,2004,02,03,04,1.13
0610300051,2004,02,03,05,1.13
0610300051,2004,02,03,06,1.53